TimeCST,TemperatureF,Dew PointF,Humidity,Sea Level PressureIn,VisibilityMPH,Wind Direction,Wind SpeedMPH,Gust SpeedMPH,PrecipitationIn,Events,Conditions,WindDirDegrees,DateUTC
12:00 AM,34.0,32.0,92,29.72,2.5,ESE,12.7,-,0.00,Rain,Light Rain,120,2013-12-03 06:00:00
12:18 AM,34.0,32.0,92,29.72,3.0,ESE,12.7,-,0.00,,Overcast,120,2013-12-03 06:18:00
12:53 AM,34.0,32.0,92,29.74,3.0,SE,11.5,-,0.01,,Overcast,130,2013-12-03 06:53:00
1:20 AM,34.0,33.1,96,29.70,2.5,SE,12.7,-,0.00,,Overcast,130,2013-12-03 07:20:00
1:53 AM,34.0,33.1,96,29.73,2.5,SE,10.4,-,0.00,,Overcast,130,2013-12-03 07:53:00
2:07 AM,34.0,33.1,96,29.72,3.0,SE,8.1,-,0.01,,Overcast,130,2013-12-03 08:07:00
2:53 AM,34.0,33.1,96,29.73,3.0,SE,11.5,-,0.01,,Overcast,130,2013-12-03 08:53:00
3:26 AM,34.0,33.1,96,29.70,3.0,SE,10.4,-,N/A,,Overcast,130,2013-12-03 09:26:00
3:53 AM,34.0,33.1,96,29.72,3.0,SE,8.1,-,N/A,,Overcast,130,2013-12-03 09:53:00
4:53 AM,35.1,34.0,96,29.71,3.0,SE,9.2,-,N/A,,Overcast,130,2013-12-03 10:53:00
5:08 AM,35.1,34.0,96,29.70,2.5,SE,5.8,-,N/A,,Overcast,140,2013-12-03 11:08:00
5:37 AM,35.1,34.0,96,29.70,1.8,North,-9999.0,-,N/A,,Overcast,0,2013-12-03 11:37:00
5:53 AM,35.1,34.0,96,29.72,1.2,SE,8.1,-,0.00,,Light Drizzle,130,2013-12-03 11:53:00
6:53 AM,35.1,34.0,96,29.72,1.2,ESE,9.2,-,0.00,,Overcast,120,2013-12-03 12:53:00
7:30 AM,35.1,35.1,100,29.70,0.8,ESE,6.9,-,N/A,,Overcast,110,2013-12-03 13:30:00
7:53 AM,35.1,35.1,100,29.72,0.8,ESE,8.1,-,N/A,,Mist,110,2013-12-03 13:53:00
8:53 AM,36.0,36.0,100,29.72,0.5,ESE,9.2,-,0.00,Fog,Fog,110,2013-12-03 14:53:00
9:53 AM,36.0,36.0,100,29.74,0.5,ESE,6.9,-,N/A,Fog,Fog,110,2013-12-03 15:53:00
10:53 AM,37.0,36.0,96,29.74,0.8,East,8.1,-,0.02,Rain,Light Rain,90,2013-12-03 16:53:00
11:53 AM,37.9,37.0,97,29.73,0.8,East,8.1,-,0.00,,Overcast,90,2013-12-03 17:53:00
12:53 PM,37.9,37.9,100,29.72,0.8,ENE,8.1,-,0.00,Rain,Light Rain,70,2013-12-03 18:53:00
1:53 PM,39.0,37.9,96,29.71,0.8,East,8.1,-,0.00,,Overcast,90,2013-12-03 19:53:00
2:53 PM,39.0,37.9,96,29.70,0.8,East,9.2,-,0.00,Rain,Light Rain,100,2013-12-03 20:53:00
3:53 PM,39.0,39.0,100,29.70,0.5,East,8.1,-,0.00,Fog-Rain,Light Rain,100,2013-12-03 21:53:00
4:53 PM,39.0,39.0,100,29.70,0.8,NE,5.8,-,0.01,,Overcast,50,2013-12-03 22:53:00
5:53 PM,39.0,39.0,100,29.74,0.8,NNE,4.6,-,N/A,,Overcast,20,2013-12-03 23:53:00
6:53 PM,37.9,37.9,100,29.75,0.5,NE,9.2,-,N/A,Fog,Fog,40,2013-12-04 00:53:00
7:53 PM,37.9,37.0,97,29.75,0.8,ENE,11.5,-,0.00,,Light Drizzle,70,2013-12-04 01:53:00
8:53 PM,37.0,37.0,100,29.77,0.8,NNE,6.9,-,0.00,,Light Drizzle,30,2013-12-04 02:53:00
9:53 PM,37.0,36.0,96,29.75,0.8,NE,5.8,-,0.01,,Light Drizzle,40,2013-12-04 03:53:00
10:53 PM,37.0,36.0,96,29.74,0.8,NNE,5.8,-,0.00,,Light Drizzle,30,2013-12-04 04:53:00
11:09 PM,37.0,36.0,96,29.73,1.8,NNE,6.9,-,0.00,,Overcast,30,2013-12-04 05:09:00
11:18 PM,37.0,36.0,96,29.73,2.5,NNE,8.1,-,0.00,,Overcast,30,2013-12-04 05:18:00
11:53 PM,36.0,36.0,100,29.75,3.0,NE,8.1,-,0.00,,Overcast,40,2013-12-04 05:53:00